Terminal Aerodrome Forecast
Issued by NWS Sterling, VA

Current Version | Previous Version | Graphics & Text | Print | Product List | Glossary On
Versions: 1 2 3 4 5 6 7 8 9 10 11 12 13 14 15 16 17 18 19 20 21
000
FTUS41 KLWX 312326
TAFDCA
TAF
KDCA 312326Z 0100/0124 20007KT P6SM SCT100 BKN250
     FM010900 VRB03KT P6SM FEW200 SCT250=

USA.gov is the U.S. government's official web portal to all federal, state and local government web resources and services.